FW3609 Weather Reports


time (UTC)temp
C
wind
direction
speed
KPH
gust
KPH
rain 1hr
cm
rain 24hr
cm
rain mn
cm
humidity
%
barometer
mb
20260507124552 11 13 0.0 0.0 0.00 1.02 0.18 82 1014.7
20260507123018 11 9 0.0 3.2 0.00 1.02 0.18 82 1014.5
20260507121549 11 325 0.0 0.0 0.00 1.02 0.18 87 1014.6
20260507120016 11 325 0.0 3.2 0.00 1.02 0.18 88 1014.4
20260507114544 11 16 0.0 3.2 0.00 1.02 0.18 92 1014.4
20260507113010 11 8 0.0 0.0 0.00 1.02 0.18 95 1014.2
20260507111539 11 8 0.0 0.0 0.00 1.02 0.18 95 1014.4
20260507110006 11 8 0.0 0.0 0.00 1.02 0.18 95 1014.2
20260507104531 11 8 0.0 0.0 0.00 1.02 0.18 96 1014.1
20260507103059 11 24 0.0 0.0 0.00 1.02 0.18 96 1013.7
20260507101524 11 24 0.0 0.0 0.00 1.02 0.18 95 1013.8
20260507094521 11 24 0.0 0.0 0.00 1.02 0.18 95 1013.7
20260507093053 11 24 0.0 0.0 0.00 1.02 0.18 95 1013.4
20260507091523 11 24 0.0 0.0 0.00 1.02 0.18 95 1013.5
20260507090058 11 24 0.0 0.0 0.00 1.02 0.18 95 1013.6
20260507084514 11 24 0.0 0.0 0.03 1.02 0.18 95 1013.2
20260507083040 11 24 0.0 0.0 0.03 1.02 0.18 95 1013.1
20260507081508 11 24 0.0 0.0 0.03 1.02 0.18 95 1012.8
20260507080037 11 32 0.0 3.2 0.03 1.02 0.18 96 1012.5
20260507074502 12 4 0.0 3.2 0.00 0.99 0.15 96 1012.5
20260507073033 12 104 0.0 4.8 0.00 0.99 0.15 96 1012.4
20260507071506 12 44 0.0 0.0 0.00 0.99 0.15 97 1012.3
20260507070042 12 338 0.0 0.0 0.00 0.99 0.15 97 1012.3
20260507064505 12 33 0.0 0.0 0.03 0.99 0.15 96 1012.4
20260507063037 12 304 0.0 0.0 0.03 0.99 0.15 96 1012.4
20260507061507 12 214 0.0 0.0 0.03 0.99 0.15 96 1012.1
20260507060026 12 23 0.0 0.0 0.10 0.99 0.15 95 1012.5
20260507054552 13 354 0.0 0.0 0.13 0.97 0.13 94 1012.5
20260507053013 13 39 0.0 1.6 0.13 0.97 0.13 93 1012.5
20260507051551 13 27 0.0 6.4 0.13 0.97 0.13 90 1012.3
20260507050001 15 300 1.6 4.8 0.05 0.89 0.05 86 1013.1
20260507044529 16 296 1.6 8.0 0.00 0.84 0.00 83 1012.3
20260507043057 16 324 1.6 12.9 0.00 0.84 0.00 80 1012.3
20260507041525 16 27 0.0 11.3 0.00 0.84 0.00 79 1012.2
20260507040044 17 288 0.0 4.8 0.00 0.84 0.84 80 1011.9
20260507034514 17 299 1.6 6.4 0.00 0.84 0.84 78 1011.9
20260507033042 17 351 1.6 8.0 0.00 0.84 0.84 79 1012.0
20260507031511 17 18 0.0 8.0 0.00 0.84 0.84 84 1011.8
20260507030037 17 43 0.0 3.2 0.00 0.84 0.84 84 1011.5
20260507024504 18 300 0.0 6.4 0.00 0.84 0.84 82 1011.5
20260507023031 18 19 0.0 11.3 0.00 0.84 0.84 81 1011.3
20260507021600 18 296 3.2 12.9 0.00 0.84 0.84 82 1011.2
20260507020029 19 19 0.0 8.0 0.00 0.84 0.84 82 1010.9
20260507014559 19 293 0.0 3.2 0.00 0.84 0.84 83 1011.1
20260507013025 20 305 0.0 11.3 0.00 0.84 0.84 83 1011.3
20260507011551 20 269 0.0 0.0 0.00 0.84 0.84 84 1011.1
20260507010023 20 269 0.0 0.0 0.00 0.84 0.84 84 1011.2
20260507004549 20 278 0.0 0.0 0.00 0.84 0.84 84 1010.9
20260507003021 20 249 0.0 3.2 0.00 0.84 0.84 83 1010.6
20260507001556 20 199 0.0 3.2 0.00 0.84 0.84 83 1010.4
20260507000020 20 207 0.0 3.2 0.00 0.84 0.84 82 1010.5
20260506234558 20 226 0.0 3.2 0.00 0.84 0.84 83 1010.4
20260506233024 20 243 0.0 0.0 0.00 0.84 0.84 83 1010.2
20260506231605 20 155 0.0 3.2 0.00 0.84 0.84 83 1009.9
20260506230024 20 102 0.0 1.6 0.00 0.84 0.84 82 1009.8
20260506224547 20 237 0.0 3.2 0.00 0.84 0.84 82 1010.0
20260506223016 20 109 0.0 3.2 0.00 0.84 0.84 82 1009.8
20260506221607 21 46 0.0 3.2 0.00 0.84 0.84 81 1009.7
20260506220015 21 156 0.0 6.4 0.00 0.84 0.84 81 1009.8
20260506214547 21 203 1.6 11.3 0.00 0.84 0.84 79 1009.8
20260506213010 21 223 0.0 8.0 0.00 0.84 0.84 77 1009.7
20260506211512 21 158 0.0 9.7 0.00 0.84 0.84 78 1009.6
20260506210046 21 181 1.6 6.4 0.00 0.84 0.84 79 1009.4
20260506204506 21 191 1.6 9.7 0.00 0.84 0.84 79 1009.3
20260506203033 21 202 0.0 6.4 0.00 0.84 0.84 79 1009.3
20260506201503 21 214 3.2 11.3 0.00 0.84 0.84 78 1009.3
20260506200032 21 203 0.0 6.4 0.00 0.84 0.84 80 1009.4
20260506194600 21 198 1.6 8.0 0.00 0.84 0.84 80 1009.6
20260506193026 21 217 1.6 9.7 0.00 0.84 0.84 79 1009.8
20260506191553 21 122 0.0 11.3 0.00 0.84 0.84 80 1009.7
20260506190026 20 170 1.6 12.9 0.00 0.84 0.84 81 1009.8
20260506184557 20 290 3.2 11.3 0.00 0.84 0.84 82 1009.8
20260506183009 20 202 0.0 11.3 0.00 0.84 0.84 84 1010.1
20260506181537 19 223 0.0 6.4 0.00 0.84 0.84 85 1010.0
20260506174532 18 165 3.2 11.3 0.00 0.84 0.84 89 1010.4
20260506173100 17 222 3.2 12.9 0.00 0.84 0.84 91 1010.3
20260506171538 17 203 1.6 11.3 0.00 0.84 0.84 92 1010.4
20260506170100 17 132 1.6 16.1 0.00 0.84 0.84 94 1010.5
20260506164525 16 205 0.0 14.5 0.00 0.84 0.84 96 1010.5
20260506163101 16 168 1.6 8.0 0.00 0.84 0.84 97 1010.6
20260506161524 16 210 3.2 19.3 0.05 0.84 0.84 97 1010.7
20260506154519 16 200 0.0 6.4 0.10 0.84 0.84 98 1010.9
20260506153044 15 269 1.6 9.7 0.15 0.84 0.84 97 1011.0
20260506151509 15 218 0.0 4.8 0.23 0.79 0.79 97 1011.1
20260506150038 15 97 0.0 3.2 0.28 0.71 0.71 97 1011.5
20260506144505 15 198 0.0 4.8 0.38 0.71 0.71 97 1011.9
20260506143036 15 198 0.0 6.4 0.51 0.69 0.69 97 1011.7
20260506141601 15 172 0.0 3.2 0.46 0.56 0.56 96 1011.7
20260506140033 15 192 0.0 6.4 0.38 0.46 0.46 95 1011.7
20260506134554 16 154 0.0 1.6 0.33 0.36 0.36 94 1011.9
20260506133026 16 134 0.0 6.4 0.18 0.18 0.18 93 1012.3
20260506131552 16 217 0.0 1.6 0.10 0.10 0.10 92 1012.0
20260506130010 16 236 0.0 6.4 0.08 0.08 0.08 91 1011.7